Regional Weather Roundup
Issued by NWS

Home | Current Version | Previous Version | Graphics & Text | Print | Product List | Glossary On
Versions: 1 2 3 4 5 6 7 8 9 10 11 12 13 14 15 16 17 18 19 20 21 22 23 24 25 26 27 28 29 30 31 32 33 34 35 36 37 38 39 40 41 42 43 44 45 46 47 48 49 50
000
ASUS43 KTOP 221508
RWRKS

WEATHER ROUNDUP FOR KANSAS
NATIONAL WEATHER SERVICE GOODLAND KS
900 AM CST WED NOV 22 2017

NOTE:  "FAIR" INDICATES FEW OR NO CLOUDS BELOW 12,000 FEET WITH NO
SIGNIFICANT WEATHER AND/OR OBSTRUCTIONS TO VISIBILITY.

KSZ001>006-013>018-027>032-041>047-221600-
NORTHWEST KANSAS

CITY           SKY/WX    TMP DP  RH WIND       PRES   REMARKS
GOODLAND       CLOUDY    45  31  58 W13       30.20R
HAYS           CLOUDY    28  18  66 S10       30.33F WCI  19
HILL CITY      CLOUDY    33  20  58 S8        30.29F
RUSSELL        CLOUDY    29  17  61 S14       30.34F WCI  18
$$

KSZ061>065-074>080-084>089-221600-
SOUTHWEST KANSAS

CITY           SKY/WX    TMP DP  RH WIND       PRES   REMARKS
DODGE CITY     SUNNY     35  16  45 S14       30.34S WCI  26
ELKHART        CLOUDY    43  32  64 SW15      30.28S
GARDEN CITY    CLOUDY    37  24  59 S15       30.29S WCI  28
GREAT BEND     CLOUDY    30  16  56 S13       30.37F WCI  20
LIBERAL        MOSUNNY   35  25  66 S16       30.32F WCI  25
PRATT          CLOUDY    29  13  50 SW9       30.40S
$$

KSZ066>073-081>083-090>101-221600-
SOUTHEAST KANSAS

CITY           SKY/WX    TMP DP  RH WIND       PRES   REMARKS
CHANUTE        MOSUNNY   28  17  63 CALM      30.44S
COFFEYVILLE    MOSUNNY   29  18  63 N5        30.45R
HUTCHINSON     CLOUDY    28  15  58 SW9       30.42R
MEDICINE LODGE   N/A     28  17  63 CALM      30.43R
NEWTON         FLURRIES  26  15  63 SW6       30.43R
PARSONS        CLOUDY    28  19  69 N6        30.45S
WICHITA INTL   CLOUDY    27  16  63 W3        30.44R
WICHITA JABRA  CLOUDY    27  17  66 S3        30.43R
WICHITA MCCONL CLOUDY    27  12  53 CALM      30.43R
WINFIELD       CLOUDY    27  17  66 W3        30.45R
$$

KSZ007>012-019>026-033>040-048>060-102>105-221600-
NORTHEAST KANSAS

CITY           SKY/WX    TMP DP  RH WIND       PRES   REMARKS
CONCORDIA      CLOUDY    25  15  66 S12       30.40R WCI  14
EMPORIA        CLOUDY    23  15  71 CALM      30.42S
LAWRENCE       CLOUDY    25  17  72 CALM      30.45S
MANHATTAN      CLOUDY    22  15  75 CALM      30.44R
MARYSVILLE     SUNNY     23  18  80 SW3       30.42R
OLATHE IND     FLURRIES  24  16  71 VRB3      30.44R
OLATHE EXE     CLOUDY    25  15  66 NE5       30.43R
SALINA         CLOUDY    28  16  60 SW8       30.43S
TOPEKA BILLARD CLOUDY    26  17  68 CALM      30.45R
TOPEKA FORBES  CLOUDY    25  16  68 CALM      30.44R
$$




USA.gov is the U.S. government's official web portal to all federal, state and local government web resources and services.